STARLINK-2285 (48019 NORAD) Tracking and Keplerian Element Data

This shows tracking and keplerian element data for the satellite.

Feedback or suggestion? Click here.




ElementValue
Catalog48019
NameSTARLINK-2285
Epoch Orbit196
Epoch Day173.91668981
Epoch Year2021
RAAN117.3097
Inclination53.0467
Eccentricity0.0001485
Argument of Perigee61.3291
Mean Anonmoly79.5721
Mean Motion15.29747587
Decay Rate-0.01067902
L11 48019U 21024AU 21173.91668981 -.01067902 00000-0 -39875-1 0 9993
L22 48019 53.0467 117.3097 0001485 61.3291 79.5721 15.29747587 1969

Live tracking and technical data element details for STARLINK-2285 (NORAD 48019). STARLINK-2285 can be tracked NOW for your location showing map with azimuth and elevation plus other details from your city location.

Track the satellite on the map from your city or location and see movement details for azimuth, elevation, latitude, longitude, range, height, and movement on the map or in text.







IsCatalogInMostPopularTable: catalog: 48019, numindb: 37
Update: records affected: 1



GetName: 48019 STARLINK-2285

Hit Count: updated at: Thu, 24 Jun 2021 03:46:43 GMT